Starlink 32626

operational
NORAD ID: 62123 Int'l Des: 2024-222 Owner: SPXS Country: US Constellation: starlink
LEOCIRCULAR

Starlink 32626について

説明を読み込み中...

リアルタイム位置

3D地球を読み込み中...

次回通過

高度履歴

Altitude vs Time

uPlot chart will show altitude changes over time

軌道要素

1 62123U 24222K 25308.84814117 .00010482 00000-0 38965-3 0 9997
2 62123 42.9984 121.4327 0001132 272.7828 87.2894 15.27600257 53657
Epoch: Nov 4, 2025 • Age: 8 hours

現在のステータス

高度 486.8 km
速度 7.62 km/s
衛星直下点 -19.50°S, 8.34°W
打ち上げ日 Nov 27, 2024
運用期間 0.9 years
タイプ internet

技術仕様

分類 Payload
質量 730.00 kg
乾燥質量 700.00 kg
総質量 730.00 kg
長さ 0.30 m
直径 4.10 m
スパン 29.00 m
形状 Box + pan
製造者 SPXS
バスタイプ Starlink V2M
フェーズステータス In Orbit
所有者/国 SPXS/US

大規模コンステレーション

Loading constellations...